User: anonymous   Login
Location: Caltech
(34.1382°N, 118.1253°W)
Time: 05:24:27
(UTC-08:00)
Language:

Hamsat - Orbit

View from above orbital plane
View from above orbital plane
View from above satellite
View from above satellite

Ground track
Ground track

The orbit data is extracted from the following two-line orbital elements,

1 28650U 05017B   16036.87645771  .00001181  00000-0  13375-3 0  9998
2 28650  97.5956  24.1052 0023406 341.4716  18.5647 14.88033910582192
Epoch (UTC): 05 February 2016 21:02:05
Eccentricity: 0.0023406
inclination: 97.5956°
perigee height: 588 km
apogee height: 620 km
right ascension of ascending node: 24.1052°
argument of perigee: 341.4716°
revolutions per day: 14.88033910
mean anomaly at epoch: 18.5647°
orbit number at epoch: 58219

The dashed part of the orbit path shows where the satellite is in the earth's shadow,  

DLR